Tracking 19854 objects as of 23-Sep-2019
HD Live streaming from Space Station
objects crossing your sky now

SL-6 R/B(2)

Track SL-6 R/B(2) now!


NORAD ID: 10089
Int'l Code: 1977-047D
Perigee: 2,849.0 km
Apogee: 37,751.2 km
Inclination: 66.6 °
Period: 722.5 minutes
Semi major axis: 26671 km
RCS: 4.9235 m2 (large)
Launch date: June 16, 1977
Source: Commonwealth of Independent States (former USSR) (CIS)
Launch site: PLESETSK MISSILE AND SPACE COMPLEX (PKMTR)

Note: This is a ROCKET BODY
aabbcc
Your satellite tracking list
Your tracking list is empty




NASA's NSSDC Master Catalog

Two Line Element Set (TLE):
1 10089U 77047D   19264.98393072 -.00000607  00000-0  00000+0 0  9999
2 10089  66.6011 275.0219 6543059 347.4334   2.0505  1.99315637211466
Source of the keplerian elements: AFSPC